This demonstration page uses our WeatherBlox Daily Observations layout. Learn more.

Hourly Observations for February 25, 2017

Temp ( °F °C ) Dew Point ( °F °C ) Humidity (%) Winds ( mph kmh ) Pressure ( in mb ) Visibility ( mi km ) Precip ( " mm )
12:15 am 00:15 Partly Cloudy 64 18 61 16 88 88 undefined N/A 29.77 1008 10 16.09344 0 0
12:35 am 00:35 Partly Cloudy 63 17 61 16 94 94 undefined N/A 29.77 1008 10 16.09344 0 0
12:55 am 00:55 Partly Cloudy 63 17 61 16 94 94 undefined N/A 29.77 1008 10 16.09344 0 0
1:15 am 01:15 Mostly Cloudy 63 17 61 16 94 94 undefined N/A 29.77 1008 10 16.09344 0 0
1:35 am 01:35 Cloudy 63 17 61 16 94 94 undefined N/A 29.77 1008 10 16.09344 0 0
1:55 am 01:55 Mostly Cloudy 61 16 59 15 94 94 undefined N/A 29.77 1008 10 16.09344 0 0
2:15 am 02:15 Cloudy 61 16 61 16 100 100 undefined N/A 29.77 1008 10 16.09344 0 0
2:35 am 02:35 Mostly Cloudy 63 17 61 16 94 94 undefined N/A 29.74 1007 10 16.09344 0 0
2:55 am 02:55 Mostly Cloudy 61 16 61 16 100 100 undefined N/A 29.74 1007 10 16.09344 0 0
3:15 am 03:15 Partly Cloudy 61 16 61 16 100 100 undefined N/A 29.74 1007 10 16.09344 0 0
3:35 am 03:35 Partly Cloudy 61 16 59 15 94 94 undefined N/A 29.74 1007 10 16.09344 0 0
3:55 am 03:55 Partly Cloudy 59 15 59 15 100 100 undefined N/A 29.71 1006 10 16.09344 0 0
4:15 am 04:15 Mostly Cloudy 63 17 61 16 94 94 undefined N/A 29.71 1006 10 16.09344 0 0
4:35 am 04:35 Cloudy 61 16 61 16 100 100 undefined N/A 29.71 1006 10 16.09344 0 0
4:55 am 04:55 Mostly Cloudy 61 16 61 16 100 100 undefined N/A 29.71 1006 10 16.09344 0 0
5:15 am 05:15 Partly Cloudy 61 16 59 15 94 94 undefined N/A 29.68 1005 10 16.09344 0 0
5:35 am 05:35 Mostly Cloudy 61 16 59 15 94 94 undefined N/A 29.71 1006 10 16.09344 0 0
5:55 am 05:55 Mostly Cloudy 61 16 59 15 94 94 undefined N/A 29.68 1005 10 16.09344 0 0
6:15 am 06:15 Mostly Cloudy 61 16 59 15 94 94 undefined N/A 29.68 1005 10 16.09344 0 0
6:35 am 06:35 Cloudy 59 15 59 15 100 100 undefined N/A 29.68 1005 10 16.09344 0 0
6:55 am 06:55 Cloudy 59 15 59 15 100 100 undefined N/A 29.68 1005 10 16.09344 0 0
7:15 am 07:15 Cloudy 59 15 59 15 100 100 undefined N/A 29.65 1004 10 16.09344 0 0
7:35 am 07:35 Cloudy 61 16 61 16 100 100 undefined N/A 29.65 1004 10 16.09344 0 0
7:55 am 07:55 Cloudy 61 16 61 16 100 100 undefined N/A 29.68 1005 10 16.09344 0 0
8:15 am 08:15 Cloudy 61 16 61 16 100 100 undefined N/A 29.65 1004 10 16.09344 0 0
8:35 am 08:35 Cloudy 63 17 61 16 94 94 undefined N/A 29.65 1004 10 16.09344 0 0
8:55 am 08:55 Mostly Cloudy with Nearby Thunderstorms 63 17 61 16 94 94 undefined N/A 29.65 1004 10 16.09344 0 0
9:15 am 09:15 Mostly Cloudy 64 18 61 16 88 88 undefined N/A 29.65 1004 10 16.09344 0 0
9:35 am 09:35 Mostly Cloudy 66 19 61 16 83 83 undefined N/A 29.62 1003 10 16.09344 0 0
9:55 am 09:55 Partly Cloudy 66 19 61 16 83 83 undefined N/A 29.62 1003 10 16.09344 0 0
10:15 am 10:15 Sunny 68 20 61 16 78 78 undefined N/A 29.62 1003 10 16.09344 0 0
10:35 am 10:35 Partly Cloudy 68 20 61 16 78 78 undefined N/A 29.62 1003 10 16.09344 0 0
10:55 am 10:55 Mostly Cloudy 70 21 61 16 73 73 undefined N/A 29.59 1002 10 16.09344 0 0
11:15 am 11:15 Mostly Cloudy 70 21 61 16 73 73 undefined N/A 29.59 1002 10 16.09344 0 0
11:35 am 11:35 Partly Cloudy 70 21 61 16 73 73 undefined N/A 29.56 1001 10 16.09344 0 0
11:55 am 11:55 Mostly Cloudy 72 22 61 16 69 69 undefined N/A 29.56 1001 10 16.09344 0 0
12:15 pm 12:15 Mostly Cloudy 72 22 61 16 69 69 undefined N/A 29.53 1000 10 16.09344 0 0
12:35 pm 12:35 Cloudy 72 22 61 16 69 69 undefined N/A 29.53 1000 10 16.09344 0 0
12:55 pm 12:55 Cloudy 73 23 61 16 65 65 undefined N/A 29.5 999 10 16.09344 0 0
1:15 pm 13:15 Cloudy with Nearby Thunderstorms 73 23 59 15 61 61 undefined N/A 29.47 998 10 16.09344 0 0
1:35 pm 13:35 Partly Cloudy 77 25 59 15 54 54 undefined N/A 29.41 996 10 16.09344 0 0
1:55 pm 13:55 Partly Cloudy 73 23 59 15 61 61 undefined N/A 29.44 997 10 16.09344 0 0
2:15 pm 14:15 Mostly Cloudy with Thunderstorms 68 20 54 12 60 60 undefined N/A 29.47 998 10 16.09344 0 0
2:35 pm 14:35 Cloudy with Heavy Rain 54 12 50 10 88 88 undefined N/A 29.53 1000 3 4.828032 0.08 2.032
2:55 pm 14:55 Cloudy 54 12 50 10 88 88 undefined N/A 29.53 1000 10 16.09344 0.12 3.048
3:15 pm 15:15 Cloudy 54 12 50 10 88 88 undefined N/A 29.53 1000 10 16.09344 0 0
3:35 pm 15:35 Cloudy 54 12 50 10 88 88 undefined N/A 29.53 1000 10 16.09344 0 0
3:55 pm 15:55 Cloudy 54 12 48 9 82 82 undefined N/A 29.56 1001 10 16.09344 0 0
4:15 pm 16:15 Cloudy 55 13 46 8 72 72 undefined N/A 29.56 1001 10 16.09344 0 0
4:35 pm 16:35 Cloudy 54 12 43 6 67 67 undefined N/A 29.59 1002 10 16.09344 0 0
4:55 pm 16:55 Cloudy 54 12 43 6 67 67 undefined N/A 29.59 1002 10 16.09344 0 0
5:15 pm 17:15 Cloudy 54 12 41 5 63 63 undefined N/A 29.62 1003 10 16.09344 0 0
5:35 pm 17:35 Cloudy 55 13 41 5 59 59 undefined N/A 29.62 1003 10 16.09344 0 0
5:55 pm 17:55 Partly Cloudy 54 12 41 5 63 63 undefined N/A 29.62 1003 10 16.09344 0 0
6:15 pm 18:15 Clear 54 12 41 5 63 63 undefined N/A 29.65 1004 10 16.09344 0 0
6:35 pm 18:35 Clear 54 12 34 1 47 47 undefined N/A 29.65 1004 10 16.09344 0 0
6:55 pm 18:55 Clear 54 12 34 1 47 47 undefined N/A 29.65 1004 10 16.09344 0 0
7:15 pm 19:15 Clear 52 11 34 1 50 50 undefined N/A 29.65 1004 10 16.09344 0 0
7:35 pm 19:35 Clear 52 11 34 1 50 50 undefined N/A 29.68 1005 10 16.09344 0 0
7:55 pm 19:55 Clear 50 10 32 0 50 50 undefined N/A 29.68 1005 10 16.09344 0 0
8:15 pm 20:15 Clear 50 10 32 0 50 50 undefined N/A 29.71 1006 10 16.09344 0 0
8:35 pm 20:35 Clear 48 9 30 -1 50 50 undefined N/A 29.74 1007 10 16.09344 0 0
8:55 pm 20:55 Clear 46 8 30 -1 53 53 undefined N/A 29.74 1007 10 16.09344 0 0
9:15 pm 21:15 Clear 46 8 30 -1 53 53 undefined N/A 29.74 1007 10 16.09344 0 0
9:35 pm 21:35 Clear 45 7 28 -2 53 53 undefined N/A 29.8 1009 10 16.09344 0 0
9:55 pm 21:55 Clear 45 7 28 -2 53 53 undefined N/A 29.83 1010 10 16.09344 0 0
10:15 pm 22:15 Clear 43 6 28 -2 57 57 undefined N/A 29.83 1010 10 16.09344 0 0
10:35 pm 22:35 Clear 43 6 27 -3 53 53 undefined N/A 29.85 1011 10 16.09344 0 0
10:55 pm 22:55 Mostly Cloudy 43 6 27 -3 53 53 undefined N/A 29.88 1012 10 16.09344 0 0
11:15 pm 23:15 Cloudy 43 6 28 -2 57 57 undefined N/A 29.88 1012 10 16.09344 0 0
11:35 pm 23:35 Cloudy 43 6 28 -2 57 57 undefined N/A 29.91 1013 10 16.09344 0 0
11:55 pm 23:55 Cloudy 43 6 28 -2 57 57 undefined N/A 29.91 1013 10 16.09344 0 0

Powered by AerisWeather